Location: Newark
(49.5647°N, 8.2922°E)
Time: 08:44:54
(UTC+00:00)

Transit 2A - Pass Details

Date: 25 February 2020
Orbit: 597 x 961 km, 66.7° (Epoch: 28 March)

Event Time Altitude Azimuth Distance (km) Brightness Sun altitude
Rises 12:13:43 0° 213° (SSW) 2,828 9.9 30.8°
Reaches altitude 10° 12:15:55 10° 213° (SSW) 1,929 9.3 30.7°
Maximum altitude 12:20:13 87° 126° (SE) 614 6.1 30.6°
Drops below altitude 10° 12:24:44 10° 37° (NE) 2,019 7.8 30.4°
Sets 12:27:05 0° 37° (NE) 2,972 8.6 30.4°
